Content
SEND FEEDBACK

Daily
Averages
Monthly
Summary
United States of America

ASHEVILLE, NORTH CAROLINA


Home > North America > United States > North Carolina
Elevation: 2240 feet     Latitude: 35 36N     Longitude: 082 32W

WEATHER
 
SELECT A DAY
Number of Records: 226,157;   Date Range: 1/1/95 - 8/17/14
 
SHARE

PRINT THIS DATA

[ ← Previous Day ]
WEATHER ALMANAC - FEBRUARY 11, 2013
[ Next Day → ]
[ °C ]   °F
Weather ElementAverageHighLow
Temperature51.1 °F57.9 °F (12:54 pm)46.4 °F (1:26 am)
Dewpoint45.7 °F53.1 °F (12:54 pm)30 °F (10:54 pm)
Humidity83.7 %100 % (2:04 am)39 % (4:54 pm)
Barometer30.04 in30.12 in (1:26 am)29.98 in (12:54 pm)
Wind Speed4.8 mph12.7 mph (2:54 am)
Wind Gust18.4 mph (4:54 pm)
Weather ElementAverage
Visibility9 mi
Wind DirectionSSE (164.8 °)

Weather ElementTotal
Precipitation0.06 in
Heating Degree Days12.9 (Base 65)
Growing Degree Days2.2 (Base 50)
Averaged from 40 records on February 11, 2013
WEATHER CONDITIONS BREAKOUT
WIND DIRECTION BREAKOUT
WEATHER BY HOUR - FEBRUARY 11, 2013
[ °C ]   °F
Local TimeTemperatureDewpointHumidityBarometerVisibilityWind DirectionWind SpeedGust SpeedPrecipitationEventsConditions
1:26 AM46.4 °F44.6 °F93 %30.12 in10.0 miSSE (150°)4.6 mph0.00 inRainLight Rain
1:54 AM46.9 °F46.0 °F97 %30.10 in10.0 miSouth (170°)8.1 mph0.00 inOvercast
2:04 AM46.4 °F46.4 °F100 %30.11 in10.0 miSSE (160°)8.1 mphOvercast
2:54 AM46.9 °F46.0 °F97 %30.06 in8.0 miSouth (170°)12.7 mph0.00 inOvercast
3:51 AM48.2 °F46.4 °F93 %30.08 in2.5 miSSE (150°)5.8 mph0.01 inOvercast
3:54 AM48.0 °F46.9 °F96 %30.06 in2.5 miSSE (150°)5.8 mph0.01 inOvercast
4:01 AM48.2 °F46.4 °F93 %30.07 in3.0 miSSE (150°)6.9 mphOvercast
4:09 AM48.2 °F46.4 °F93 %30.05 in3.0 miSE (140°)6.9 mphOvercast
4:19 AM48.2 °F46.4 °F93 %30.06 in4.0 miSSE (150°)6.9 mphOvercast
4:54 AM48.0 °F46.9 °F96 %30.07 in9.0 miSSE (160°)8.1 mph0.00 inRainLight Rain
5:10 AM48.2 °F48.2 °F100 %30.09 in9.0 miSSE (160°)5.8 mph0.01 inRainLight Rain
5:54 AM48.0 °F46.9 °F96 %30.06 in10.0 miSSE (150°)8.1 mph0.02 inOvercast
6:54 AM48.9 °F48.0 °F97 %30.03 in10.0 miSouth (190°)9.2 mph0.01 inMostly Cloudy
7:24 AM48.2 °F48.2 °F100 %30.06 in10.0 miCalmMostly Cloudy
7:54 AM48.9 °F48.0 °F97 %30.06 in10.0 miSE (130°)3.5 mphOvercast
8:24 AM48.2 °F48.2 °F100 %30.07 in10.0 miCalmMostly Cloudy
8:31 AM50.0 °F48.2 °F94 %30.07 in10.0 miSE (140°)3.5 mphMostly Cloudy
8:46 AM51.8 °F48.2 °F88 %30.06 in10.0 miESE (110°)4.6 mphOvercast
8:54 AM51.1 °F48.9 °F92 %30.06 in10.0 miCalmMostly Cloudy
9:02 AM51.8 °F48.2 °F88 %30.06 in10.0 miSE (130°)4.6 mphOvercast
9:27 AM53.6 °F50.0 °F88 %30.05 in10.0 miSouth (170°)5.8 mphMostly Cloudy
9:54 AM53.1 °F51.1 °F93 %30.04 in10.0 miCalmOvercast
10:06 AM53.6 °F51.8 °F94 %30.04 in10.0 miSouth (190°)6.9 mphMostly Cloudy
10:54 AM55.9 °F52.0 °F87 %30.03 in10.0 miCalmMostly Cloudy
11:06 AM55.4 °F51.8 °F88 %30.05 in10.0 miSSW (200°)3.5 mphMostly Cloudy
11:54 AM57.0 °F52.0 °F83 %30.03 in10.0 miNNW (340°)3.5 mphOvercast
12:01 PM57.2 °F51.8 °F82 %30.04 in10.0 miCalmMostly Cloudy
12:54 PM57.9 °F53.1 °F84 %29.98 in10.0 miNNW (330°)3.5 mphMostly Cloudy
1:43 PM55.4 °F51.8 °F88 %30.04 in10.0 miNorth (350°)10.4 mphOvercast
1:54 PM55.9 °F51.1 °F84 %30.00 in10.0 miNorth (350°)9.2 mphOvercast
2:54 PM57.0 °F50.0 °F77 %29.98 in10.0 miCalmClear
3:54 PM57.0 °F50.0 °F77 %29.98 in10.0 miCalmClear
4:54 PM57.0 °F32.0 °F39 %29.98 in10.0 miNW (310°)6.9 mph18.4 mphClear
5:54 PM54.0 °F35.1 °F49 %29.99 in10.0 miNorth (360°)4.6 mphClear
6:54 PM51.1 °F37.0 °F59 %30.01 in10.0 miNorth (360°)3.5 mphClear
7:54 PM50.0 °F36.0 °F59 %30.02 in10.0 miNorth (360°)3.5 mphClear
8:54 PM48.9 °F34.0 °F56 %30.03 in10.0 miNorth (350°)4.6 mphClear
9:54 PM48.0 °F32.0 °F54 %30.04 in10.0 miCalmClear
10:54 PM48.0 °F30.0 °F50 %30.03 in10.0 miNorth (10°)5.8 mphClear
11:54 PM46.9 °F30.0 °F52 %30.02 in10.0 miNorth (350°)6.9 mphClear
Hourly data recorded from KAVL, located miles away from Asheville, North Carolina







STORIES FROM OUR PARTNERS